Weather History for KKLS - December, 2012

Change the Weather History Date:

Monday, December 17, 2012

  Actual Average Record
Temperature  
Mean Temperature 42 °F -  
Max Temperature 48 °F 43 °F 53 °F (1999)
Min Temperature 35 °F 34 °F 21 °F (2005)
Degree Days  
Heating Degree Days 24    
Moisture  
Dew Point 35 °F    
Average Humidity 80    
Maximum Humidity 93    
Minimum Humidity 70    
Precipitation  
Precipitation 0.55 in - - ()
Sea Level Pressure  
Sea Level Pressure 29.67 in    
Wind  
Wind Speed 10 mph (South)    
Max Wind Speed 18 mph    
Max Gust Speed 31 mph    
Visibility 10 miles    
Events      
Averages and records for this station are not official NWS values.
T = Trace of Precipitation, MM = Missing Value Source: NWS Daily Summary

Daily Weather History Graph

Daily Weather History Graph

Search for Another Location

Airport or City:

Trip Planner

Search our weather history database for the weather conditions in past years. The results will help you decide how hot, cold, wet, or windy it might be!

Date:

Astronomy

Dec. 17, 2012 Rise Set
Actual Time 7:49 AM PST 4:27 PM PST
Civil Twilight 7:14 AM PST 5:01 PM PST
Nautical Twilight 6:36 AM PST 5:39 PM PST
Astronomical Twilight 5:59 AM PST 6:16 PM PST
Moon 10:46 AM PST (12/17) 10:10 PM PST (12/17)
Length of Visible Light 9h 47m
Length of Day
8h 38m
Waxing Crescent, 26% of the Moon is Illuminated
Dec 17
Waxing Crescent
Dec 19
First Quarter
Dec 28
Full
Jan 4
Last Quarter
Jan 11
New

Hourly Weather History & Observations

Time (PST) Temp. Windchill Dew Point Humidity Pressure Visibility Wind Dir Wind Speed Gust Speed Precip Events Conditions
12:15 AM 48.2 °F - 41.0 °F 76% 29.10 in 10.0 mi South 12.7 mph 20.7 mph N/A   Overcast
12:35 AM 46.4 °F 41.1 °F 39.2 °F 76% 29.09 in 10.0 mi SSE 11.5 mph 20.7 mph N/A   Overcast
12:55 AM 46.4 °F 39.2 °F 39.2 °F 76% 29.10 in 9.0 mi SSE 18.4 mph 31.1 mph 0.02 in   Overcast
1:15 AM 46.4 °F 40.4 °F 39.2 °F 76% 29.12 in 9.0 mi SSE 13.8 mph 23.0 mph 0.04 in   Overcast
1:35 AM 46.4 °F 41.1 °F 39.2 °F 76% 29.14 in 7.0 mi SSE 11.5 mph 21.9 mph 0.05 in   Overcast
1:55 AM 46.4 °F 40.1 °F 39.2 °F 76% 29.14 in 5.0 mi SSE 15.0 mph 28.8 mph 0.07 in   Mostly Cloudy
2:15 AM 44.6 °F 38.1 °F 39.2 °F 81% 29.16 in 9.0 mi South 13.8 mph 21.9 mph 0.03 in   Overcast
2:35 AM 46.4 °F 41.1 °F 41.0 °F 81% 29.23 in 7.0 mi SW 11.5 mph 26.5 mph 0.08 in   Mostly Cloudy
2:55 AM 44.6 °F 36.9 °F 39.2 °F 81% 29.28 in 5.0 mi West 18.4 mph 27.6 mph 0.10 in   Overcast
3:15 AM 44.6 °F 38.4 °F 37.4 °F 76% 29.30 in 10.0 mi WSW 12.7 mph 21.9 mph 0.02 in   Overcast
3:35 AM 44.6 °F 39.2 °F 37.4 °F 76% 29.33 in 10.0 mi SW 10.4 mph 19.6 mph 0.03 in   Overcast
3:55 AM 44.6 °F 37.4 °F 37.4 °F 76% 29.35 in 9.0 mi WSW 16.1 mph 28.8 mph 0.05 in   Overcast
4:15 AM 44.6 °F 38.8 °F 37.4 °F 76% 29.37 in 10.0 mi SW 11.5 mph 20.7 mph 0.01 in   Overcast
4:35 AM 44.6 °F 40.2 °F 37.4 °F 76% 29.40 in 10.0 mi West 8.1 mph 19.6 mph 0.01 in   Overcast
4:55 AM 44.6 °F 41.4 °F 37.4 °F 76% 29.41 in 10.0 mi South 5.8 mph - 0.02 in   Overcast
5:15 AM 44.6 °F 40.7 °F 37.4 °F 76% 29.43 in 10.0 mi South 6.9 mph - N/A   Overcast
5:35 AM 42.8 °F 37.0 °F 37.4 °F 81% 29.46 in 9.0 mi SW 10.4 mph 20.7 mph 0.02 in   Overcast
5:55 AM 42.8 °F 36.2 °F 37.4 °F 81% 29.49 in 9.0 mi SW 12.7 mph 18.4 mph 0.06 in   Overcast
6:15 AM 42.8 °F 36.6 °F 37.4 °F 81% 29.52 in 10.0 mi West 11.5 mph 27.6 mph 0.03 in   Overcast
6:35 AM 42.8 °F 36.2 °F 37.4 °F 81% 29.53 in 10.0 mi WSW 12.7 mph 20.7 mph 0.05 in   Overcast
6:55 AM 42.8 °F 38.0 °F 37.4 °F 81% 29.55 in 9.0 mi WSW 8.1 mph 19.6 mph 0.06 in   Overcast
7:15 AM 42.8 °F 38.6 °F 37.4 °F 81% 29.57 in 8.0 mi WSW 6.9 mph 16.1 mph 0.01 in   Overcast
7:35 AM 42.8 °F 39.3 °F 35.6 °F 76% 29.60 in 10.0 mi SW 5.8 mph - 0.03 in   Overcast
7:55 AM 42.8 °F 37.5 °F 35.6 °F 76% 29.61 in 10.0 mi WSW 9.2 mph - 0.04 in   Overcast
8:15 AM 42.8 °F 36.6 °F 35.6 °F 76% 29.64 in 8.0 mi West 11.5 mph 23.0 mph 0.01 in   Overcast
8:35 AM 41.0 °F 35.8 °F 35.6 °F 81% 29.64 in 10.0 mi WSW 8.1 mph 23.0 mph 0.02 in   Mostly Cloudy
8:55 AM 42.8 °F 37.5 °F 35.6 °F 76% 29.66 in 10.0 mi South 9.2 mph - 0.02 in   Overcast
9:15 AM 42.8 °F 39.3 °F 35.6 °F 76% 29.68 in 10.0 mi South 5.8 mph - N/A   Scattered Clouds
9:35 AM 42.8 °F 38.0 °F 35.6 °F 76% 29.71 in 9.0 mi West 8.1 mph - N/A   Mostly Cloudy
9:55 AM 42.8 °F 39.3 °F 33.8 °F 70% 29.71 in 10.0 mi SSW 5.8 mph - 0.01 in   Mostly Cloudy
10:15 AM 42.8 °F 38.6 °F 35.6 °F 76% 29.72 in 10.0 mi South 6.9 mph - N/A   Mostly Cloudy
10:35 AM 42.8 °F 37.5 °F 35.6 °F 76% 29.74 in 10.0 mi South 9.2 mph - N/A   Mostly Cloudy
10:55 AM 42.8 °F 37.5 °F 33.8 °F 70% 29.76 in 10.0 mi SSW 9.2 mph - N/A   Mostly Cloudy
11:15 AM 42.8 °F 37.5 °F 35.6 °F 76% 29.77 in 10.0 mi South 9.2 mph - N/A   Mostly Cloudy
11:35 AM 42.8 °F 37.5 °F 33.8 °F 70% 29.79 in 10.0 mi SW 9.2 mph 17.3 mph N/A   Overcast
11:55 AM 41.0 °F 39.0 °F 33.8 °F 76% 29.78 in 10.0 mi SW 3.5 mph - N/A   Mostly Cloudy
12:15 PM 42.8 °F 37.5 °F 33.8 °F 70% 29.79 in 9.0 mi WSW 9.2 mph 18.4 mph N/A   Overcast
12:35 PM 41.0 °F - 33.8 °F 76% 29.80 in 10.0 mi Calm Calm - N/A   Overcast
12:55 PM 42.8 °F 37.5 °F 35.6 °F 76% 29.79 in 10.0 mi South 9.2 mph - N/A   Overcast
1:15 PM 42.8 °F 40.1 °F 33.8 °F 70% 29.81 in 10.0 mi West 4.6 mph - N/A   Overcast
1:35 PM 37.4 °F 32.8 °F 32.0 °F 81% 29.82 in 10.0 mi WNW 5.8 mph - 0.02 in   Overcast
1:55 PM 39.2 °F - 32.0 °F 75% 29.82 in 10.0 mi Calm Calm - 0.02 in   Mostly Cloudy
4:35 PM 37.4 °F - 32.0 °F 81% 29.90 in 10.0 mi Calm Calm - 0.03 in   Mostly Cloudy
4:55 PM 37.4 °F - 33.8 °F 87% 29.90 in 10.0 mi Calm Calm - 0.03 in   Mostly Cloudy
5:15 PM 37.4 °F 31.4 °F 32.0 °F 81% 29.91 in 10.0 mi South 8.1 mph - 0.01 in   Overcast
5:35 PM 37.4 °F 33.8 °F 32.0 °F 81% 29.92 in 10.0 mi South 4.6 mph - 0.02 in   Mostly Cloudy
5:55 PM 37.4 °F 34.9 °F 30.2 °F 75% 29.92 in 10.0 mi SE 3.5 mph - 0.02 in   Scattered Clouds
6:15 PM 35.6 °F 29.9 °F 32.0 °F 87% 29.93 in 10.0 mi SSE 6.9 mph - N/A   Mostly Cloudy
6:35 PM 37.4 °F 29.8 °F 32.0 °F 81% 29.93 in 10.0 mi SSE 11.5 mph - N/A   Mostly Cloudy
6:55 PM 35.6 °F 28.0 °F 32.0 °F 87% 29.93 in 10.0 mi SSE 10.4 mph 17.3 mph N/A   Mostly Cloudy
7:15 PM 35.6 °F 28.6 °F 32.0 °F 87% 29.93 in 10.0 mi SSE 9.2 mph - N/A   Overcast
7:35 PM 35.6 °F 28.0 °F 32.0 °F 87% 29.93 in 10.0 mi SSE 10.4 mph - N/A   Mostly Cloudy
7:55 PM 35.6 °F 28.0 °F 32.0 °F 87% 29.94 in 10.0 mi SSE 10.4 mph - N/A   Mostly Cloudy
8:15 PM 35.6 °F 27.5 °F 32.0 °F 87% 29.94 in 10.0 mi SSE 11.5 mph - N/A   Overcast
8:35 PM 35.6 °F 27.5 °F 32.0 °F 87% 29.95 in 10.0 mi SE 11.5 mph - 0.01 in   Mostly Cloudy
8:55 PM 35.6 °F 29.2 °F 32.0 °F 87% 29.95 in 10.0 mi SE 8.1 mph - 0.01 in   Overcast
9:15 PM 35.6 °F 29.9 °F 32.0 °F 87% 29.95 in 10.0 mi SE 6.9 mph - N/A   Mostly Cloudy
9:35 PM 35.6 °F 29.9 °F 32.0 °F 87% 29.96 in 10.0 mi SSE 6.9 mph - N/A   Overcast
9:55 PM 35.6 °F 28.6 °F 33.8 °F 93% 29.96 in 10.0 mi SE 9.2 mph - N/A   Mostly Cloudy
10:15 PM 35.6 °F 29.2 °F 32.0 °F 87% 29.96 in 10.0 mi SSE 8.1 mph - 0.01 in   Overcast
10:35 PM 35.6 °F 29.2 °F 32.0 °F 87% 29.96 in 10.0 mi SSE 8.1 mph - 0.01 in   Mostly Cloudy
10:55 PM 35.6 °F 29.2 °F 32.0 °F 87% 29.97 in 10.0 mi SSE 8.1 mph - 0.01 in   Mostly Cloudy
11:15 PM 35.6 °F 28.6 °F 32.0 °F 87% 29.97 in 10.0 mi SSE 9.2 mph - 0.01 in   Overcast
11:35 PM 35.6 °F 28.6 °F 32.0 °F 87% 29.97 in 10.0 mi SE 9.2 mph - 0.01 in   Overcast
11:55 PM 35.6 °F 29.9 °F 32.0 °F 87% 29.97 in 10.0 mi SE 6.9 mph - 0.01 in   Overcast